Tracking 19219 objects as of 21-Jul-2018
HD Live streaming from Space Station
objects crossing your sky now

BUCCANEER RMM

Track BUCCANEER RMM now!
10-day predictions


NORAD ID: 43014
Int'l Code: 2017-073B
Perigee: 465.6 km
Apogee: 824.4 km
Inclination: 97.7 °
Period: 97.5 minutes
Semi major axis: 7016 km
RCS: Unknown
Launch date: November 18, 2017
Source: United States (US)
Launch site: AIR FORCE WESTERN TEST RANGE (AFWTR)
aabbcc
Your satellite tracking list
Your tracking list is empty




NASA's NSSDC Master Catalog

Two Line Element Set (TLE):
1 43014U 17073B   18201.94559955  .00000799  00000-0  70731-4 0  9990
2 43014  97.7050 131.2524 0255706 162.0655 198.9789 14.77286388 36093
Source of the keplerian elements: AFSPC